Regional Weather Roundup
Issued by NWS Sterling, VA

Home | Current Version | Previous Version | Text Only | Print | Product List | Glossary Off
Versions: 1 2 3 4 5 6 7 8 9 10 11 12 13 14 15 16 17 18 19 20 21 22 23 24 25 26 27

000
ASUS41 KLWX 270511
RWRLWX

REGIONAL WEATHER ROUNDUP
NATIONAL WEATHER SERVICE BALTIMORE MD/WASHINGTON DC
100 AM EDT SAT AUG 27 2016

Note: "FAIR" indicates few or no clouds below 12,000 feet
with no significant weather and/or obstructions to visibility.
 TC=TEMPERATURE CELSIUS

 * =Non NWS site. Station does not report precipitation (e.g. rain,
    snow, etc.), thunder, or fog.

DCZ001-MDZ009-015-VAZ040>042-051-053>054-270600-
WASHINGTON METRO

CITY           SKY/WX    TMP DP  RH WIND       PRES   REMARKS
WASHINGTON NAT MOCLDY    82  74  76 N6        30.09S
DULLES         CLEAR     81  71  71 N7        30.11R
ANDREWS AFB    CLEAR     75  71  88 CALM      30.10R
FT BELVOIR     MOCLDY    75  73  92 CALM      30.09R
QUANTICO       CLOUDY    80  77  90 NW7       30.10R
COLLEGE PARK*  CLEAR     73  72  94 CALM      30.09S
LEESBURG*      PTCLDY    79  72  78 NW3       30.13R
MANASSAS*      MOCLDY    75  75 100 CALM      30.10S
GAITHERSBURG*  CLEAR     73  70  88 CALM      30.16R

$$

MDZ006>007-011-014-270600-
BALTIMORE METRO

CITY           SKY/WX    TMP DP  RH WIND       PRES   REMARKS
BWI AIRPORT    PTCLDY    75  71  87 CALM      30.10R
MD SCIENCE CTR   N/A     84  67  56 MISG      30.10R
MARTIN STATE   CLEAR     77  73  88 CALM      30.10S
ANNAPOLIS      CLEAR     81  77  88 NW3       30.08S
FORT MEADE*    CLEAR    N/A N/A N/A CALM      30.12S

$$

MDZ012-015-019>023-270600-
MARYLAND EASTERN SHORE

CITY           SKY/WX    TMP DP  RH WIND       PRES   REMARKS
OCEAN CITY     CLEAR     74  71  91 CALM      30.08R
SALISBURY      CLEAR     74  73  97 CALM      30.08R
BAY BRIDGE AP* CLEAR     81  73  78 N3        30.09R
CAMBRIDGE*     CLEAR     73  72  94 CALM      30.08R
EASTON*        CLEAR     76  76  99 CALM      30.13R

$$

MDZ017>025-270600-
SOUTHERN MARYLAND

CITY           SKY/WX    TMP DP  RH WIND       PRES   REMARKS
PATUXENT RIVER CLEAR     75  72  90 CALM      30.08R
ST INIGOES     CLEAR     75  73  93 CALM      30.07S
LEONARDTOWN*   CLEAR     73  72  94 CALM      30.10S

$$

MDZ003>005-270600-
NORTH CENTRAL MARYLAND

CITY           SKY/WX    TMP DP  RH WIND       PRES   REMARKS
FREDERICK*     CLEAR     72  72 100 CALM      30.14S
HAGERSTOWN APT CLEAR     77  64  64 CALM      30.14R

$$

MDZ501>502-270600-
WESTERN MARYLAND

CITY           SKY/WX    TMP DP  RH WIND       PRES   REMARKS
OAKLAND*       CLEAR     68  64  88 CALM      30.27F
CUMBERLAND*    CLEAR     73  70  88 N5        30.20S

$$

VAZ025>031-270600-
SHENANDOAH VALLEY

CITY           SKY/WX    TMP DP  RH WIND       PRES   REMARKS
WINCHESTER*    CLEAR     77  66  69 CALM      30.14S
FRONT ROYAL*   FAIR      73  72  94 CALM      30.14R
LURAY*         FAIR     N/A N/A N/A CALM      30.16R
NEW MARKET*    FAIR     N/A N/A N/A CALM      30.15S
STAUNTON*      CLEAR     70  69  96 CALM      30.18F
WAYNESBORO*    FAIR      72  70  93 CALM      30.18S

$$

WVZ021-048>050-054>055-270600-
EASTERN WEST VIRGINIA PANHANDLE

CITY           SKY/WX    TMP DP  RH WIND       PRES   REMARKS
MARTINSBURG    CLEAR     73  66  78 CALM      30.13R
PETERSBURG*    CLEAR     71  69  95 CALM      30.17S

$$

VAZ036>039-050-270600-
CENTRAL FOOTHILLS

CITY           SKY/WX    TMP DP  RH WIND       PRES   REMARKS
CHARLOTTESVILL CLEAR     76  73  91 CALM      30.11S
CULPEPER*      PTCLDY    77  76  98 CALM      30.11S
ORANGE*          N/A     73  73 100 CALM      30.12S FOG
GORDONSVILLE*  FAIR      73  73 100 CALM      30.10S
WARRENTON*     FAIR      74  69  83 CALM      30.10S HAZE

$$

VAZ055>057-270600-
NORTH AND CENTRAL PIEDMONT

CITY           SKY/WX    TMP DP  RH WIND       PRES   REMARKS
FREDERICKSBRG* CLEAR     79  79 100 CALM      30.08R
STAFFORD*      MOCLDY    76  74  93 CALM      30.13S

$$

NCZ024-NYZ072-PAZ021-071-VAZ022-071-270600-
OTHER REGIONAL OBSERVATIONS

CITY           SKY/WX    TMP DP  RH WIND       PRES   REMARKS
NEW YORK CITY    N/A     81  63  54 MISG        N/A
PHILADELPHIA   CLEAR     80  65  59 NW3       30.10R
PITTSBURGH     CLEAR     70  62  76 CALM      30.17F
ROANOKE        CLEAR     77  72  84 N3        30.17R
RICHMOND       PTCLDY    81  74  79 CALM      30.08R
RALEIGH        PTCLDY    80  73  79 CALM      30.10S

$$

ANZ530>537-270600-
MARINE OBSERVATIONS

STATION/POSITION TIME  TEMP    WIND        PRES
                       AIR SEA DIR/SP/G
                 (UTC) (F)     (DEG/KT/KT) (MB)
THOMAS PT LIGHT  0500   82 83  350/  3/  4 1020.3R
BALT KEY BRIDGE  0448   82      10/  5/  5 1018.9R
COVE POINT       0448   82        CALM     1019.1R
LEWISETTA        0448   81 85     CALM     1018.2R
SOLOMONS ISLAND  0448   81 84  340/  1/  2   N/A
PINEY POINT      0448          110/  2/  3   N/A

$$





USA.gov is the U.S. government's official web portal to all federal, state and local government web resources and services.